MOLNIYA 1-40

Last updated on June 18, 2019, 3:33 a.m. UTC

1 10925U 78055A   19168.07980501 -.00000383  00000-0 -50346-2 0  9993
2 10925  62.4160 192.5651 7061470 277.3257  14.0883  2.00561404300723
UTC
Height (km)
Latitude
Longitude
Inclination
Orbital Period
UTC large
Height (km)
Speed (km/s)
/
Latitude / Longitude
Inclination (degrees)
Orbital Period (minutes)
Azimuth
Elevation
Range (km)
Doppler Factor
iOS Compass Heading
iOS Angle

Next 30 passes for location: Hong Kong

Rise time Rise Azimuth (degrees) Set time Set Azimuth (degrees) Duration Max altitude (degrees)

No matching passes for this satellites